Lid_Strength_Index
1 -0 -1 -1 -1 -1 -1 -0 -0 0 -0 -0 -0 -0 0 0 0 1 1 1 0 0 0 0 0 0 4 6 7 6 4 5 5 6 7 7 7 7 8 9 9 9 9 10 10 10 10
1 0 -1 -1 -1 -1 -1 -0 -0 -0 -0 -0 -0 -0 0 1 1 1 1 1 1 0 0 1 1 1 5 8 7 5 6 7 7 7 7 7 7 7 8 9 9 9 10 10 10 10 10
1 0 -1 -1 -1 -1 -0 -0 -0 -0 -0 -0 -0 0 0 1 1 1 1 1 1 1 1 1 1 4 6 7 7 5 7 7 7 7 7 6 6 7 7 9 9 9 9 9 9 9 9
1 0 -1 -1 -1 -0 -0 -0 -0 -0 -0 0 0 0 1 1 1 1 1 1 1 1 1 1 1 5 7 7 5 6 6 6 6 6 6 6 6 7 8 7 8 8 9 9 10 9 9
1 0 -1 -1 -1 -0 -0 0 0 0 0 0 1 1 1 1 1 1 1 1 1 1 1 2 5 6 8 5 7 6 6 7 7 6 6 6 6 7 7 8 9 9 10 10 10 10 10
1 0 -1 -1 -0 -0 0 0 1 1 1 1 1 1 1 1 1 1 1 2 2 2 5 6 7 7 8 8 7 7 6 6 7 6 6 6 6 7 8 9 11 11 11 11 11 11 10
2 1 0 -0 -0 0 0 1 1 1 1 1 1 1 1 1 1 2 4 5 6 6 7 8 9 9 9 7 7 7 7 6 6 7 8 8 8 9 9 10 11 11 11 11 11 11 11
2 1 2 -0 0 1 1 1 1 1 1 1 1 1 1 1 1 3 4 5 7 7 8 9 9 9 8 7 9 8 6 7 7 9 9 9 10 11 11 11 11 11 11 11 11 11 11
2 1 2 1 1 1 1 1 1 1 1 1 1 1 1 1 2 4 6 7 7 6 8 9 8 9 9 8 9 9 7 8 9 10 10 10 12 12 12 12 12 11 11 12 12 11 12
2 2 2 1 1 1 1 1 1 1 1 1 1 1 1 3 4 7 7 7 6 6 10 10 9 8 8 8 9 8 8 8 9 10 11 11 12 12 12 12 11 13 12 12 13 12 14
2 3 2 1 1 1 1 1 1 1 1 1 1 1 2 4 6 7 8 6 5 6 15 10 9 7 7 9 9 9 8 8 10 11 11 11 13 13 12 12 12 12 12 12 13 13 13
3 3 2 2 2 2 2 2 2 2 1 1 1 2 3 4 4 6 6 5 6 10 15 11 10 10 10 9 9 9 8 8 9 11 11 13 12 12 12 13 12 12 12 13 12 12 17
4 3 2 2 2 2 2 2 2 2 2 1 2 3 4 5 6 5 4 6 10 13 11 12 11 11 11 11 11 10 11 10 10 12 12 12 13 13 12 12 11 12 12 16 17 18 16
4 3 2 3 3 3 3 3 2 2 2 1 2 4 5 6 5 4 5 8 14 13 13 11 12 12 12 12 12 11 11 11 12 12 12 13 14 13 13 12 12 12 13 16 19 16 15
4 3 3 3 3 3 3 3 3 2 2 1 3 3 4 4 6 5 7 11 13 14 12 12 12 13 13 12 12 12 12 12 13 12 12 14 14 14 14 13 12 13 14 13 15 18 17
4 4 4 4 4 4 4 3 3 3 2 3 4 5 5 5 6 6 9 11 13 12 12 12 13 13 14 14 13 13 13 13 13 12 12 13 14 15 15 13 13 13 13 14 14 18 17
5 5 4 4 4 4 4 4 4 3 2 4 5 7 5 6 6 8 10 13 12 12 12 12 13 13 13 13 13 13 14 13 12 12 11 13 13 15 14 14 13 14 13 14 14 15 17
5 5 5 4 5 5 5 5 4 3 2 5 7 10 6 6 9 12 12 13 11 13 12 12 12 13 14 14 14 14 14 13 13 12 13 14 13 14 14 17 17 16 14 13 15 16 17
5 5 4 5 5 5 5 5 5 4 4 5 7 8 6 7 11 12 12 13 12 12 13 13 14 13 14 15 15 15 14 12 12 12 12 13 13 16 16 17 17 16 16 17 17 16 16
5 5 5 5 5 5 6 6 6 5 4 6 8 10 9 9 11 12 13 13 14 12 13 14 14 14 14 15 14 15 14 13 12 12 11 12 14 14 16 15 15 17 17 18 16 16 15
6 6 6 6 6 6 6 6 6 6 5 6 10 12 12 12 12 12 12 13 14 13 12 12 13 13 14 15 14 14 13 12 12 12 12 13 16 14 14 13 14 15 15 15 17 14 16
6 6 6 6 6 6 6 6 6 7 6 8 9 10 11 12 12 12 13 14 14 14 13 13 13 14 13 14 13 14 13 13 13 11 12 12 14 15 16 13 13 15 14 14 13 13 13
6 6 6 6 6 6 6 6 7 7 8 10 10 9 9 14 13 13 14 14 15 14 13 13 13 14 15 13 13 12 12 12 12 13 13 13 13 15 18 14 15 18 16 15 14 13 13
6 6 6 6 6 6 6 6 7 8 9 10 11 11 11 15 14 14 15 14 15 14 15 13 12 13 12 11 11 11 12 13 12 12 11 13 13 14 17 15 20 16 15 15 14 14 14
6 6 6 6 6 6 6 6 7 7 9 12 12 12 11 14 13 13 14 14 14 14 13 13 10 11 11 11 13 15 15 14 14 13 12 12 13 15 17 17 15 14 14 14 14 14 12
6 6 6 6 6 6 7 7 7 7 8 10 11 11 9 11 12 12 13 13 13 13 14 14 12 11 10 12 14 18 18 17 17 16 13 12 11 13 15 18 21 14 11 10 11 16 11
6 6 6 6 6 6 6 6 6 5 7 8 9 10 9 9 11 11 12 12 12 13 13 15 14 13 12 13 16 16 17 15 18 18 17 15 15 16 15 17 15 11 10 9 16 14 9
6 6 6 6 6 5 5 5 4 4 5 8 9 9 9 10 11 10 10 12 13 13 13 14 14 14 14 15 15 15 16 15 16 15 16 15 15 16 16 18 20 9 9 12 10 8 8
6 6 5 5 4 3 3 4 4 4 5 8 9 9 10 10 11 10 10 9 10 11 12 13 14 14 12 14 14 14 15 17 17 17 15 16 13 14 13 14 10 7 7 7 7 8 7